CAPE
1980 1944 2023 2115 2070 1940 1712 1866 1900 1805 1881 1982 1984 1975 1960 1910 1862 1822 1735 1406 1189 1026 1039 1072 1007 770 172 9 18 8 23 8 13 0 6 17 0 0 42 24 16 0
2092 2067 2099 2144 2150 2096 1941 1860 1837 1785 1759 1725 1772 1774 1838 1899 1877 1788 1790 1517 1142 1055 964 876 721 437 28 12 20 20 17 11 10 82 4 0 0 1 24 27 39 0
2206 2193 2221 2232 2207 2217 2167 2052 1900 1822 1785 1730 1706 1669 1699 1797 1757 1531 1478 1294 1107 1080 943 787 583 271 73 18 29 44 32 8 6 70 41 15 1 1 7 26 2 0
2269 2278 2314 2336 2266 2250 2284 2227 2083 1941 1855 1783 1692 1643 1579 1600 1559 1377 1268 1190 1109 1095 912 783 557 8 72 43 42 21 17 9 15 51 67 57 76 9 0 0 47 2
2300 2366 2399 2422 2371 2289 2330 2364 2282 2129 2002 1886 1610 1557 1450 1419 1346 1309 1275 1205 1136 1118 960 686 8 2 38 34 49 19 13 10 31 58 56 39 46 75 20 29 17 0
2304 2402 2461 2491 2478 2391 2349 2404 2412 2273 2144 1933 1664 1484 1423 1382 1390 1390 1310 1253 1170 1036 864 580 41 9 37 3 19 41 60 23 28 62 55 55 23 79 71 33 10 0
2413 2412 2504 2533 2567 2490 2386 2378 2400 2342 2218 2031 1772 1601 1467 1538 1383 1382 1318 1234 1156 1003 861 624 65 37 67 0 2 24 52 49 14 81 82 46 38 38 62 36 21 2
2581 2519 2527 2563 2599 2600 2500 2396 2374 2313 2218 2064 1869 1695 1604 1573 1514 1413 1392 1287 1128 933 838 672 75 66 88 32 0 4 11 66 24 68 96 60 16 31 26 21 6 2
2740 2673 2616 2622 2629 2665 2640 2518 2430 2314 2142 2000 1866 1738 1666 1598 1581 1506 1322 1179 980 837 728 638 532 128 96 94 22 0 0 21 41 40 52 77 44 31 23 4 2 5
2839 2817 2745 2697 2677 2688 2716 2690 2556 2422 2242 2033 1928 1827 1750 1710 1663 1544 1280 1021 856 755 696 640 604 492 152 116 88 10 0 5 9 14 28 29 58 55 22 5 6 2
2867 2887 2837 2771 2740 2705 2727 2766 2721 2585 2412 2226 2073 1976 1906 1838 1750 1611 1309 988 857 775 729 681 617 507 202 108 131 92 22 10 84 79 106 213 141 22 184 23 14 8
2898 2912 2895 2834 2777 2730 2716 2761 2778 2725 2575 2420 2272 2144 2062 1972 1868 1703 1474 1212 966 836 773 706 615 503 258 114 117 178 195 195 218 231 257 307 266 263 45 55 49 28
2951 2937 2930 2884 2811 2762 2728 2738 2780 2746 2665 2579 2450 2304 2158 2078 1970 1812 1574 1370 1202 1020 887 756 646 561 450 203 203 208 242 280 302 322 323 294 266 335 220 68 49 36
3014 2966 2932 2903 2860 2805 2716 2687 2746 2754 2705 2649 2566 2449 2299 2155 2031 1892 1714 1502 1324 1208 1103 1000 902 796 665 492 242 260 280 356 390 419 437 74 311 310 241 117 45 38
3095 3026 2967 2915 2870 2817 2718 2654 2701 2762 2757 2690 2594 2505 2363 2242 2116 1965 1784 1624 1495 1368 1286 1207 1148 1075 946 821 612 312 342 447 532 572 635 605 179 167 306 146 85 184
3182 3121 3044 2969 2907 2837 2758 2670 2661 2735 2778 2742 2679 2583 2458 2324 2211 2113 1947 1780 1652 1555 1479 1421 1379 1306 1214 1105 965 770 480 614 738 836 899 818 546 33 298 326 290 238
3243 3196 3134 3058 2971 2896 2824 2738 2681 2689 2731 2750 2742 2690 2598 2477 2364 2250 2146 2016 1871 1762 1681 1618 1574 1538 1458 1364 1265 1128 988 973 1118 1226 1218 1104 796 474 256 258 290 550
3332 3261 3198 3148 3068 2998 2913 2840 2747 2701 2697 2738 2756 2766 2737 2666 2563 2464 2364 2251 2160 2073 1981 1892 1805 1720 1661 1601 1531 1454 1361 1399 1431 1451 1394 1256 1018 539 293 204 273 337
3457 3366 3277 3190 3127 3069 3002 2939 2839 2746 2730 2720 2781 2822 2833 2802 2748 2685 2605 2523 2423 2344 2271 2208 2135 2057 1968 1914 1832 1755 1780 1732 1723 1619 1517 1170 984 648 364 364 452 351
3580 3483 3384 3283 3190 3120 3048 2988 2892 2817 2762 2751 2788 2872 2916 2918 2874 2836 2788 2743 2671 2583 2522 2445 2368 2306 2276 2220 2132 2084 2082 2039 2007 1888 1641 1371 1097 748 507 515 430 302
3646 3566 3488 3398 3294 3209 3124 3037 2980 2882 2808 2805 2807 2875 2969 3006 3005 2964 2928 2896 2838 2780 2716 2658 2592 2549 2488 2422 2377 2386 2415 2364 1898 1842 1757 1574 1274 845 623 529 488 270
3662 3597 3552 3467 3402 3315 3209 3141 3068 2985 2927 2881 2858 2912 3000 3042 3064 3053 3050 3033 2990 2940 2872 2843 2809 2783 2742 2707 2685 2674 2692 2535 2310 2009 1860 1605 1340 1111 709 575 515 426
3643 3601 3579 3540 3482 3384 3275 3203 3148 3104 3050 3002 2976 2984 3037 3100 3156 3168 3164 3137 3100 3066 3050 3051 3069 3055 3015 2972 2916 2859 2774 2627 2474 1918 1950 1804 1572 1340 887 597 492 451
3606 3610 3602 3573 3505 3406 3299 3226 3205 3187 3168 3142 3122 3112 3122 3170 3234 3302 3320 3316 3316 3287 3267 3295 3298 3261 3216 3143 3049 3003 2944 2853 2660 2394 2244 1922 1653 1488 1148 836 658 617
3604 3651 3615 3555 3494 3413 3296 3221 3258 3282 3247 3245 3241 3229 3248 3268 3326 3380 3438 3501 3504 3506 3488 3493 3475 3416 3326 3230 3144 3079 2990 2799 2595 2186 1900 1816 1588 1404 1112 926 839 652
3546 3671 3646 3578 3516 3441 3328 3266 3331 3352 3371 3359 3342 3325 3354 3385 3414 3457 3508 3552 3578 3604 3603 3579 3505 3446 3323 3272 3192 3134 2964 2749 2586 2372 2147 1860 1602 1372 1104 1038 880 693
Wind_Speed
13 13 12 13 12 12 13 14 15 15 15 14 13 12 12 11 14 16 16 15 16 17 18 19 19 21 23 nan nan nan nan nan nan nan nan nan nan nan nan nan nan nan
15 15 14 15 15 14 13 14 15 15 15 14 13 12 11 12 13 15 16 16 17 17 17 19 20 22 nan nan nan nan nan nan nan nan nan nan nan nan nan nan nan nan
16 17 17 18 18 17 15 14 14 14 14 14 13 11 11 11 13 12 15 17 17 17 18 20 21 23 nan nan nan nan nan nan nan nan nan nan nan nan nan nan nan nan
17 18 19 19 18 16 15 14 13 14 14 13 11 11 11 10 11 12 14 16 17 18 19 20 22 nan nan nan nan nan nan nan nan nan nan nan nan nan nan nan nan nan
17 18 18 17 15 14 14 13 13 12 12 11 10 9 9 10 11 13 14 15 17 19 19 21 nan nan nan nan nan nan nan nan nan nan nan nan nan nan nan nan nan nan
17 16 15 14 13 12 11 11 10 9 9 9 8 7 8 10 12 14 15 17 17 19 20 21 nan nan nan nan nan nan nan nan nan nan nan nan nan nan nan nan nan nan
15 14 13 12 10 9 8 8 8 6 5 6 6 5 8 10 12 14 16 18 19 20 22 24 nan nan nan nan nan nan nan nan nan nan nan nan nan nan nan nan nan nan
14 14 12 10 7 5 5 7 6 4 3 5 5 6 8 10 12 13 15 17 18 21 23 25 nan nan nan nan nan nan nan nan nan nan nan nan nan nan nan nan nan nan
14 13 11 7 5 4 4 5 5 3 3 3 5 6 8 10 12 13 15 17 19 21 23 24 26 26 nan nan nan nan nan nan nan nan nan nan nan nan nan nan nan nan
12 11 9 6 4 4 3 4 5 3 2 3 5 7 8 8 11 13 15 17 20 21 22 24 25 26 27 28 nan nan nan nan nan nan nan nan nan nan nan nan nan nan
11 11 8 7 5 6 3 4 4 4 3 4 6 6 7 9 10 13 15 17 18 20 22 24 26 28 29 29 30 nan nan nan nan nan 38 39 38 nan 39 nan nan nan
11 10 9 8 7 6 4 4 4 5 5 4 5 5 7 8 12 13 15 16 17 20 22 25 26 29 31 33 33 34 35 37 38 38 38 38 36 36 nan nan nan nan
11 10 10 9 8 7 7 6 5 6 6 4 4 4 7 9 10 12 12 15 18 20 23 25 27 29 31 33 34 35 36 37 38 39 39 37 33 33 36 nan nan nan
11 11 11 11 10 9 8 7 7 6 5 4 4 4 6 9 10 11 12 14 17 20 23 25 27 28 30 32 34 36 37 37 39 40 41 nan 36 33 34 34 nan nan
13 13 13 14 13 12 10 9 7 6 5 5 5 5 6 7 8 10 13 15 17 20 23 25 27 29 30 33 36 38 38 39 41 42 45 46 41 37 35 33 nan 30
15 15 15 15 15 13 11 9 7 6 6 7 7 7 7 7 8 11 14 16 19 21 23 25 27 28 32 39 40 40 41 40 41 42 47 48 45 nan 38 35 32 31
19 18 17 16 15 14 12 10 7 8 8 9 9 9 7 8 10 13 14 17 20 23 26 26 27 29 37 40 44 46 43 42 42 41 44 46 45 42 39 36 33 32
21 21 19 16 16 15 13 10 11 11 10 11 10 9 9 10 11 13 15 18 20 23 26 27 28 33 40 43 46 47 47 44 42 42 43 45 44 43 39 37 35 34
25 24 21 18 16 15 15 15 14 13 11 11 9 9 11 11 12 14 16 18 21 25 27 29 29 37 43 46 48 50 50 48 44 44 45 45 44 42 40 38 36 36
28 26 23 19 17 18 19 19 17 13 11 11 11 11 11 11 12 15 17 20 23 27 28 30 33 41 48 50 51 53 52 50 45 46 46 46 45 42 39 38 38 38
30 28 25 22 20 20 22 21 18 15 13 12 12 12 12 13 15 17 19 22 26 29 30 33 35 46 51 53 54 55 54 53 47 47 48 48 46 43 40 38 38 39
31 29 27 25 23 22 22 22 20 17 13 14 15 15 15 16 16 18 21 25 28 31 33 34 36 47 50 52 55 56 56 51 49 49 49 48 46 43 41 40 40 42
32 31 30 28 26 24 22 22 21 19 17 18 17 17 17 17 18 20 22 26 30 33 34 34 36 44 50 52 55 57 55 50 50 50 50 49 47 44 43 43 44 45
32 33 32 31 29 25 22 21 22 22 21 21 19 18 17 17 18 20 23 26 31 34 36 37 38 45 54 56 58 59 59 54 51 51 50 50 47 45 44 45 47 51
33 34 33 33 30 26 22 20 20 21 22 23 19 18 17 18 19 21 24 28 31 34 39 41 40 46 55 59 60 61 59 52 51 50 49 49 49 47 46 46 46 47
33 34 35 34 32 28 24 20 21 23 23 23 22 21 20 21 23 25 27 29 32 36 39 41 43 46 52 58 59 61 59 51 46 48 49 50 51 49 48 46 46 44
Wind_Direction
295 289 292 292 293 294 298 297 292 304 314 312 312 316 322 322 320 327 333 335 335 337 339 337 333 333 334 nan nan nan nan nan nan nan nan nan nan nan nan nan nan nan
297 293 286 285 284 283 284 289 293 302 309 309 308 309 312 314 323 326 332 335 334 339 338 336 332 332 nan nan nan nan nan nan nan nan nan nan nan nan nan nan nan nan
291 289 290 290 289 290 290 288 292 297 301 303 302 303 306 313 321 328 330 332 334 336 338 337 332 331 nan nan nan nan nan nan nan nan nan nan nan nan nan nan nan nan
289 290 288 289 289 289 286 288 290 290 288 289 299 302 307 310 322 332 330 332 331 335 337 335 334 nan nan nan nan nan nan nan nan nan nan nan nan nan nan nan nan nan
287 286 284 285 284 282 283 291 295 287 287 289 290 300 309 316 326 329 327 329 332 334 334 335 nan nan nan nan nan nan nan nan nan nan nan nan nan nan nan nan nan nan
279 279 280 281 280 281 283 286 284 281 279 284 303 297 317 324 328 330 329 331 333 334 333 332 nan nan nan nan nan nan nan nan nan nan nan nan nan nan nan nan nan nan
277 272 272 268 272 278 276 270 268 273 279 285 278 315 318 328 329 332 332 333 334 333 333 335 nan nan nan nan nan nan nan nan nan nan nan nan nan nan nan nan nan nan
271 265 263 260 267 265 265 262 264 273 269 268 320 326 323 328 331 329 331 332 331 333 335 338 nan nan nan nan nan nan nan nan nan nan nan nan nan nan nan nan nan nan
268 266 263 260 263 251 267 270 268 267 253 307 321 322 324 325 327 329 330 330 332 335 338 340 342 345 nan nan nan nan nan nan nan nan nan nan nan nan nan nan nan nan
275 270 273 263 262 254 273 273 268 259 255 304 318 313 324 322 323 328 327 330 334 337 340 341 342 345 349 351 nan nan nan nan nan nan nan nan nan nan nan nan nan nan
285 281 281 278 271 254 271 274 273 263 261 313 310 320 321 315 320 321 326 331 336 339 340 341 343 346 348 349 348 nan nan nan nan nan 351 349 346 nan 341 nan nan nan
292 291 296 293 283 271 273 269 265 270 285 296 312 319 310 318 322 320 325 334 338 338 339 343 344 348 350 348 348 348 348 348 347 347 346 343 340 337 nan nan nan nan
297 298 291 286 281 272 256 251 260 277 291 305 298 305 310 314 317 322 322 331 337 335 339 342 346 349 349 346 345 346 346 345 344 343 339 333 330 332 332 nan nan nan
299 290 284 282 273 267 260 260 266 271 277 265 257 288 305 312 316 324 323 324 331 334 336 338 343 347 346 344 342 343 342 342 342 338 333 nan 333 331 329 329 nan nan
289 281 275 275 277 275 273 273 273 263 247 238 243 264 267 289 302 312 318 324 327 330 332 335 341 344 341 339 339 338 338 341 341 337 329 336 340 335 330 328 nan 330
288 282 281 281 282 285 282 276 262 247 237 235 247 257 256 266 291 310 321 326 327 328 329 333 339 339 340 340 337 335 337 338 338 336 335 340 343 nan 333 331 334 333
283 285 285 288 288 282 275 268 256 240 235 240 248 254 262 279 299 316 324 325 328 328 332 335 337 337 338 335 337 339 335 334 336 335 338 340 340 340 340 338 336 335
288 285 287 290 285 286 279 263 247 239 237 245 253 263 270 287 311 323 324 322 322 327 331 336 338 337 333 334 335 337 336 332 330 333 339 339 338 341 342 341 338 334
291 287 289 288 291 288 270 253 247 243 244 248 257 262 274 298 316 317 318 321 323 328 333 335 335 332 331 333 334 337 338 333 329 332 336 339 339 340 342 341 337 334
294 291 288 289 287 278 266 258 253 252 248 241 240 256 280 299 307 315 317 322 325 327 330 331 333 329 331 332 334 337 337 333 328 329 333 337 339 340 340 340 338 335
293 292 289 285 281 275 269 265 262 254 249 243 247 264 284 297 306 315 320 323 324 325 326 330 331 329 330 331 334 337 337 332 325 326 329 334 336 338 339 339 338 335
292 291 287 281 279 276 274 274 269 264 259 254 256 263 272 281 294 310 322 324 324 325 326 329 327 327 329 330 333 338 336 327 325 324 326 330 332 334 336 336 335 333
287 288 285 283 282 280 280 280 274 266 261 260 266 271 278 291 307 319 322 322 321 321 324 324 319 323 327 329 332 336 327 324 323 323 325 328 328 330 333 334 333 331
282 284 286 287 286 287 285 278 271 264 267 268 275 281 291 303 310 313 314 315 318 319 320 318 316 320 328 329 331 329 324 324 324 322 324 324 324 325 329 333 333 334
276 280 284 288 289 287 278 273 269 267 265 267 274 280 289 293 298 303 306 308 312 314 316 318 317 320 328 327 328 324 318 314 315 317 321 321 319 322 327 330 329 329
270 275 280 285 288 281 272 267 260 259 264 269 272 276 283 287 293 297 303 305 305 308 311 316 318 315 322 327 328 324 320 309 310 316 321 321 320 322 326 327 325 321